Location: Unspecified
(0.0000°N, 0.0000°E)
Time: 18:53:59
(UTC+00:00)

Tiros 1 despin weight - Pass Details

Date: 19 November 2019
Orbit: 594 x 642 km, 48.2° (Epoch: 05 December)

Event Time Altitude Azimuth Distance (km) Brightness Sun altitude
Rises 22:50:01 0° 292° (WNW) 2,907 - -66.2°
Reaches altitude 10° 22:52:57 10° 273° (W) 2,010 - -66.6°
Maximum altitude 22:56:08 18° 230° (SW) 1,548 - -67.0°
Drops below altitude 10° 22:59:20 10° 186° (S) 2,026 - -67.4°
Sets 23:02:19 0° 167° (SSE) 2,940 - -67.8°
